www.pogodaiklimat.ru

Погода и климат >> Архив погоды >> Россия >> Крым >> Нижнегорский


ПОГОДА в Нижнегорском

  • Прогноз погоды в Нижнегорском
  • Монитор погоды в Нижнегорском

АРХИВ ПОГОДЫ в Нижнегорском

Время (UTC), дата Ветер
(напр.,м/с)
 
Видим.   Явления Облачность Т
(С)
Тd
(С)
f
(%)
Тe
(С)
Тes
(С)
Комфортность P
(гПа)
Po
(гПа)
Тmin
(С)
Tmax
(С)
R
(мм)
R24
(мм)
S
(см)
18 10.07 СЗ 2 20 км 8/3 600 м
[Cu med, cong Ac trans Cc]
+20.6 +8.0 44 +22 +22 комфорт 1007.6 1005.3 +27.8
21 10.07 З 2 20 км 10/0
[Ac As]
+19.0 +11.3 61 +20 +20 1008.1 1005.8
00 11.07 З 1 20 км 10/10 600 м
[Sc]
+18.6 +12.1 66 +20 +20 1007.0 1004.7
03 11.07 СЗ 1 20 км 9/0
[Ac trans Cc]
+16.6 +11.9 74 +17 +18 1006.4 1004.1 +15.2
06 11.07 З 2 20 км 9/0
[Ac trans Cc]
+18.0 +12.6 71 +19 +24 1007.0 1004.7 +15.2
09 11.07 С 2 20 км 10/0
[Ac As]
+21.1 +10.3 50 +23 +28 комфорт 1007.1 1004.8
12 11.07 штиль 0 50 км 9/3 600 м
[Cu hum Ac lent]
+21.8 +10.5 49 +24 +28 комфорт 1006.7 1004.4
15 11.07 штиль 0 50 км 9/8 600 м
[Cu Sc Ac lent]
+22.6 +10.1 45 +24 +25 комфорт 1006.2 1003.9
18 11.07 С 2 20 км 8/6 600 м
[Sc Ci fib]
+19.2 +12.8 66 +21 +21 комфорт 1006.6 1004.3 +24.2
21 11.07 штиль 0 20 км 4/0
[Ac trans]
+15.4 +11.8 79 +15 +15 1007.1 1004.7
00 12.07 С 1 20 км ясно +13.4 +11.3 87 +14 +14 1007.0 1004.6
03 12.07 штиль 0 50 км ясно +12.1 +11.1 94 +11 +12 1007.3 1004.9 +11.9
06 12.07 СЗ 2 50 км 3/3 600 м
[Cu hum Ci fib]
+20.8 +13.1 61 +24 +30 комфорт 1008.3 1006.0 +11.9
09 12.07 штиль 0 50 км 8/8 600 м
[Cu med, cong]
+25.1 +8.7 35 +26 +30 жарко 1008.3 1006.0
12 12.07 штиль 0 50 км 10/10 600 м
[Cu Sc]
+21.8 +11.0 50 +24 +24 комфорт 1008.6 1006.3
15 12.07 Ю 2 50 км 10/10 600 м
[Sc]
+19.0 +12.2 65 +21 +21 комфорт 1009.2 1006.9
18 12.07 З 3 4000 м слаб. ливневой дождь 10/10 600 м
[Cb cap]
+15.2 +13.8 91 +14 +14 1009.5 1007.1 +26.3 2
21 12.07 З 2 20 км {ливн. осадки} 9/9 600 м
[Cb cap]
+15.0 +13.9 93 +15 +15 1009.7 1007.3
00 13.07 З 2 20 км {ливн. осадки} 8/0
[Ac trans]
+14.6 +13.5 93 +14 +14 1009.6 1007.2
03 13.07 З 1 50 км 4/0
[Ac lent]
+12.8 +12.1 96 +13 +13 1009.3 1006.9 +12.6 4
06 13.07 З 5
{10}
50 км 3/0
[Ci fib]
+20.1 +15.2 73 +22 +27 комфорт 1009.3 1007.0 +12.6 3
09 13.07 СЗ 3 50 км 8/8 600 м
[Cu med, cong]
+24.8 +12.7 47 +27 +30 жарко 1009.5 1007.2
12 13.07 З 2 50 км 4/4 600 м
[Cu med, cong]
+26.6 +10.4 36 +27 +36 жарко 1009.2 1006.9
15 13.07 З 4
{11}
50 км 6/4 600 м
[Cu med, cong Ac cast]
+25.4 +10.2 38 +26 +27 жарко 1009.1 1006.8
18 13.07 С 3 50 км 8/8 600 м
[Cb cap]
+21.6 +11.2 52 +24 +24 комфорт 1010.2 1007.9 +27.2
21 13.07 С 2 20 км ясно +15.0 +13.0 88 +15 +15 1010.5 1008.1
00 14.07 С 1 20 км ясно +13.2 +12.1 93 +13 +13 1009.9 1007.5
03 14.07 С 3 50 км 3/0
[Ci fib]
+13.0 +11.9 93 +12 +12 1010.2 1007.8 +11.6
06 14.07 штиль 0 50 км 6/0
[Ci fib]
+21.0 +14.8 68 +24 +34 комфорт 1009.5 1007.2 +11.6
09 14.07 СВ 2 50 км 9/6 600 м
[Cu med, cong Ci sp]
+25.2 +13.2 47 +27 +33 жарко 1009.2 1006.9
12 14.07 В 5 50 км 9/6 600 м
[Cu med, cong Ci sp]
+27.0 +8.3 31 +27 +29 жарко 1008.2 1005.9
15 14.07 ЮВ 4 50 км 9/3 600 м
[Cu med, cong Ac trans Ci sp]
+26.4 +10.4 37 +27 +28 жарко 1007.4 1005.1
18 14.07 ЮВ 1 20 км 4/0
[Ac trans]
+19.4 +13.0 66 +22 +22 комфорт 1008.2 1005.9 +28.3
21 14.07 штиль 0 20 км ясно +16.0 +13.9 87 +16 +16 1008.2 1005.8
00 15.07 штиль 0 20 км ясно +15.2 +13.4 89 +15 +15 1006.5 1004.1
03 15.07 ЮЗ 1 20 км 9/0
[Ci sp]
+12.8 +11.7 93 +13 +13 1006.3 1003.9 +11.7
06 15.07 штиль 0 20 км 9/4 600 м
[Cu med, cong Ac trans Ci sp]
+23.8 +16.7 64 +27 +32 жарко 1005.7 1003.4 +11.7
09 15.07 В 4
{10}
20 км 10/6 600 м
[Cu med, cong Ac As]
+25.8 +14.7 50 +28 +30 жарко 1004.8 1002.5
12 15.07 СВ 4
{10}
20 км 10/4 600 м
[Cu med, cong Ac As]
+25.4 +15.6 55 +29 +30 душно 1004.3 1002.0
15 15.07 ЮВ 4 20 км 10/10 600 м
[Cu Sc]
+22.2 +14.8 63 +26 +26 душно 1005.0 1002.7
18 15.07 штиль 0 50 км {гроза} 10/6 600 м
[Sc Ac As]
+18.0 +15.3 84 +18 +18 1006.6 1004.3 +27.3
21 15.07 З 2 20 км 10/0
[Ac As]
+18.4 +15.1 81 +19 +19 1006.5 1004.2
00 16.07 штиль 0 20 км 10/0
[Ac As]
+17.4 +15.2 87 +17 +17 1006.6 1004.3
03 16.07 З 1 50 км 10/0
[Ac As]
+16.2 +14.1 87 +17 +17 1006.7 1004.4 +16.2
06 16.07 штиль 0 50 км 9/0
[Ac lent Cc]
+28.0 +15.6 78 +22 +27 комфорт 1006.6 950.6 +25.0
09 16.07 СЗ 6
{10}
50 км 4/4 600 м
[Cu hum]
+26.5 +12.6 42 +28 +32 жарко 1006.5 1004.2
12 16.07 СЗ 5
{11}
20 км 6/6 600 м
[Cu Sc]
+27.1 +12.3 40 +29 +32 жарко 1006.3 1004.0
15 16.07 ЮВ 5
{10}
20 км гроза без осадков 6/6 600 м
[Cb cap]
+24.7 +13.0 48 +27 +27 жарко 1007.1 1004.8
18 16.07 ЮЗ 3 20 км гроза без осадков {ливн. осадки} 4/4 600 м
[Cb cap]
+19.1 +15.9 82 +21 +21 комфорт 1008.3 1006.0 +28.7 0.7
21 16.07 З 2 20 км {гроза} ясно +15.5 +14.3 93 +15 +15 1008.8 1006.4
00 17.07 З 3 20 км {гроза} 6/0
[Ci fib]
+14.6 +13.5 93 +14 +14 1008.9 1006.5
03 17.07 ЮЗ 3 20 км 9/0
[Ac cast Cc]
+15.5 +14.3 93 +15 +15 1009.0 1006.6 +14.6 0.7
06 17.07 З 1 20 км 8/0
[Cc]
+22.3 +17.1 72 +27 +35 душно 1009.0 1006.7 +14.6

 

Местоположение метеостанции Нижнегорский (Крым, Россия): широта 45.45 долгота 34.73 высота над уровнем моря 20 м.

В архиве по умолчанию представлена погода в Нижнегорском за последнюю неделю. Архивные данные за месяц целиком и за предыдущие месяцы, начиная с января 2011 года, Вы можете получить, выбрав интересующий диапазон дат из раскрывающегося списка и нажав кнопку "Ввод!".


*Определитесь, кто Вы:
робот инопланетянин человек

Внимание! Время в таблицах - всемирное. Для получения местного времени необходимо прибавить поправку, которая равна 3 ч.

Смотрите также архив погоды в соседних городах и на ближайших метеорологических станциях:

Погода в Стрелковом (Херсонская область, Украина) (18 км)
Погода в Джанкое (Крым, Россия) (40 км)
Погода в Клепинино (Крым, Россия) (44 км)
Погода в Белогорске (Крым, Россия) (46 км)
Погода в Владиславовке (Крым, Россия) (60 км)
Погода в Феодосии (Крым, Россия) (69 км)
Погода в Карадаге (Крым, Россия) (71 км)
Погода в Симферополе город (Крым, Россия) (73 км)
Погода в Симферополе (Крым, Россия) (76 км)
Погода в Геническе (Херсонская область, Украина) (80 км)

Пояснения к столбцам:

Ветер - указаны скорость ветра в м/с - средняя за 10 мин, порывы в срок и между сроками (в фигурных скобках) и направление, откуда дует ветер: С - северный, СВ - северо-восточный, В - восточный, ЮВ - юго-восточный, Ю - южный, ЮЗ - юго-западный, З - западный, СЗ - северо-западный.
Видимость - горизонтальная дальность видимости в метрах или километрах. При видимости от 1 до 10 км при отсутствии осадков обычно наблюдается дымка, при ухудшении видимости до 1 км и менее - туман. В сухую погоду видимость может ухудшаться дымом, пылью или мглою.
Явления - указаны атмосферные явления, наблюдавшиеся в срок или в последний час перед сроком; фигурными скобками обозначены явления, наблюдавшиеся между сроками (за 1-3 часа до срока); квадратными скобками обозначены град или гололедные отложения с указанием их диаметра в мм.
Облачность - указаны через наклонную черту общая и нижняя облачность в баллах и высота нижней границы облаков в метрах; квадратными скобками обозначены формы облаков: Ci - перистые, Cs - перисто-слоистые, Cc - перисто-кучевые, Ac - высококучевые, As - высокослоистые, Sc - слоисто-кучевые, Ns - слоисто-дождевые, Cu - кучевые, Cb - кучево-дождевые. Подробнее классификацию облаков см. в Атласе облаков (PDF).
T - Температура воздуха - температура, измеренная на высоте 2 м над землей.
Td - Температура точки росы - температура, при понижении до которой содержащийся в воздухе водяной пар достигнет насыщения.
f - Относительная влажность воздуха - влажноcть воздуха, измеренная на высоте 2 м над землей.
Te - Эффективная температура - температура, которую ощущает одетый по сезону человек в тени. Характеристика душности погоды. При расчете учитывается влияние влажности воздуха и скорости ветра на теплоощущения человека.
Tes - Эффективная температура на солнце - температура, которую ощущает человек, с поправкой на солнечный нагрев. Характеристика знойности погоды. Зависит от высоты солнца над горизонтом, облачности и скорости ветра. Ночью, в пасмурную погоду, а также при ветре 12 м/с и более поправка равна нулю.
P - Атмосферное давление - приведенное к уровню моря атмосферное давление.
Po - Атмосферное давление - измеренное на уровне метеостанции атмосферное давление.
Tmin - Минимальная температура - минимум температуры воздуха на высоте 2 м над землей.
Tmax - Максимальная температура - максимум температуры воздуха на высоте 2 м над землей.
R - Количество осадков - Количество выпавших осадков за период времени, мм. При наведении курсора мыши на число - период времени, за который выпало указанное количество осадков.
R24 - Количество осадков - Количество выпавших осадков за 24 часа, мм.
S - Снежный покров - Высота снежного покрова, см. При наведении курсора мыши на число - состояние снежного покрова и степень покрытия местности в баллах.